Weather History for Port Angeles, WA

Change the Weather History Date:

Thursday, July 25, 2013

  Actual Average Record
Temperature  
Mean Temperature 60 °F -  
Max Temperature 71 °F 69 °F 83 °F (1984)
Min Temperature 51 °F 51 °F 43 °F (1974)
Degree Days  
Heating Degree Days 4    
Growing Degree Days 10 (Base 50)    
Moisture  
Dew Point 52 °F    
Average Humidity 87    
Maximum Humidity 100    
Minimum Humidity 57    
Precipitation  
Precipitation 0.00 in - - ()
Sea Level Pressure  
Sea Level Pressure 30.10 in    
Wind  
Wind Speed 7 mph (WNW)    
Max Wind Speed 13 mph    
Max Gust Speed -    
Visibility 6 miles    
Events Fog    
Averages and records for this station are not official NWS values.
T = Trace of Precipitation, MM = Missing Value Source: NWS Daily Summary

Daily Weather History Graph

Daily Weather History Graph

Search for Another Location

Airport:

Trip Planner

Search our weather history database for the weather conditions in past years. The results will help you decide how hot, cold, wet, or windy it might be!

Date:

Astronomy

Jul. 25, 2013 Rise Set
Actual Time 5:41 AM PDT 8:58 PM PDT
Civil Twilight 5:03 AM PDT 9:36 PM PDT
Nautical Twilight 4:14 AM PDT 10:25 PM PDT
Astronomical Twilight 3:10 AM PDT 11:28 PM PDT
Moon 10:18 PM PDT (7/25) 9:38 AM PDT (7/25)
Length of Visible Light 16h 32m
Length of Day
15h 17m
Waning Gibbous, 87% of the Moon is Illuminated
Jul 25
Waning Gibbous
Jul 29
Last Quarter
Aug 6
New
Aug 14
First Quarter
Aug 20
Full

Hourly Weather History & Observations

Time (PDT) Temp. Dew Point Humidity Pressure Visibility Wind Dir Wind Speed Gust Speed Precip Events Conditions
12:53 AM 53.1 °F 51.1 °F 93% 30.05 in 10.0 mi WNW 9.2 mph - N/A   Clear
1:53 AM 52.0 °F 50.0 °F 93% 30.05 in 10.0 mi NW 8.1 mph - N/A   Clear
2:17 AM 51.1 °F 50.0 °F 96% 30.05 in 10.0 mi WNW 5.8 mph - N/A   Partly Cloudy
2:41 AM 51.1 °F 50.0 °F 96% 30.06 in 10.0 mi WNW 6.9 mph - N/A   Mostly Cloudy
2:53 AM 52.0 °F 51.1 °F 97% 30.06 in 3.0 mi WNW 5.8 mph - N/A   Mostly Cloudy
3:18 AM 52.0 °F 51.1 °F 97% 30.07 in 1.8 mi WNW 5.8 mph - N/A   Overcast
3:42 AM 52.0 °F 51.1 °F 97% 30.07 in 1.8 mi West 4.6 mph - N/A   Overcast
3:53 AM 52.0 °F 51.1 °F 97% 30.08 in 1.5 mi West 9.2 mph - N/A   Overcast
4:53 AM 52.0 °F 51.1 °F 97% 30.08 in 0.8 mi West 10.4 mph - N/A   Mist
5:19 AM 52.0 °F 51.1 °F 97% 30.08 in 1.0 mi WNW 6.9 mph - N/A   Mist
5:37 AM 52.0 °F 51.1 °F 97% 30.08 in 0.5 mi WNW 9.2 mph - N/A Fog Fog
5:50 AM 51.8 °F 51.8 °F 100% 30.08 in 0.2 mi WNW 6.9 mph - N/A Fog Fog
5:53 AM 52.0 °F 51.1 °F 97% 30.09 in 0.2 mi WNW 6.9 mph - N/A Fog Fog
6:10 AM 52.0 °F 51.1 °F 97% 30.08 in 0.8 mi WNW 5.8 mph - N/A   Mist
6:26 AM 51.1 °F 51.1 °F 100% 30.09 in 0.2 mi WNW 9.2 mph - N/A Fog Fog
6:53 AM 52.0 °F 51.1 °F 97% 30.10 in 0.2 mi WNW 8.1 mph - N/A Fog Fog
7:11 AM 52.0 °F 51.1 °F 97% 30.10 in 0.5 mi WNW 8.1 mph - N/A Fog Fog
7:22 AM 52.0 °F 51.1 °F 97% 30.09 in 1.2 mi WNW 6.9 mph - N/A   Overcast
7:42 AM 52.0 °F 51.1 °F 97% 30.10 in 3.0 mi WNW 4.6 mph - N/A   Overcast
7:53 AM 52.0 °F 52.0 °F 100% 30.10 in 1.8 mi West 4.6 mph - N/A   Overcast
8:15 AM 53.1 °F 52.0 °F 96% 30.10 in 2.5 mi West 3.5 mph - N/A   Overcast
8:23 AM 53.1 °F 52.0 °F 96% 30.10 in 4.0 mi NNW 3.5 mph - N/A   Overcast
8:36 AM 53.1 °F 53.1 °F 100% 30.11 in 2.5 mi WNW 5.8 mph - N/A   Overcast
8:44 AM 53.1 °F 52.0 °F 96% 30.12 in 6.0 mi West 5.8 mph - N/A   Overcast
8:53 AM 53.1 °F 52.0 °F 96% 30.12 in 10.0 mi WNW 5.8 mph - N/A   Overcast
9:53 AM 57.0 °F 52.0 °F 83% 30.12 in 10.0 mi Variable 5.8 mph - N/A   Mostly Cloudy
10:03 AM 57.9 °F 52.0 °F 81% 30.12 in 8.0 mi West 4.6 mph - N/A   Scattered Clouds
10:53 AM 63.0 °F 53.1 °F 70% 30.12 in 10.0 mi NNW 4.6 mph - N/A   Clear
11:53 AM 64.9 °F 54.0 °F 68% 30.13 in 10.0 mi NNW 6.9 mph - N/A   Clear
12:53 PM 64.9 °F 54.0 °F 68% 30.13 in 10.0 mi North 5.8 mph - N/A   Clear
1:53 PM 66.0 °F 55.0 °F 68% 30.13 in 10.0 mi NNW 5.8 mph - N/A   Clear
2:53 PM 68.0 °F 55.0 °F 63% 30.13 in 10.0 mi NW 9.2 mph - N/A   Clear
3:53 PM 70.0 °F 55.0 °F 59% 30.12 in 10.0 mi Variable 5.8 mph - N/A   Clear
4:53 PM 70.0 °F 54.0 °F 57% 30.11 in 10.0 mi NNW 9.2 mph - N/A   Clear
5:53 PM 69.1 °F 54.0 °F 58% 30.10 in 10.0 mi NW 9.2 mph - N/A   Clear
6:53 PM 66.9 °F 53.1 °F 61% 30.10 in 10.0 mi WNW 8.1 mph - N/A   Clear
7:53 PM 62.1 °F 50.0 °F 65% 30.11 in 10.0 mi WNW 12.7 mph - N/A   Clear
8:53 PM 57.9 °F 51.1 °F 78% 30.10 in 10.0 mi West 9.2 mph - N/A   Clear
9:53 PM 57.0 °F 51.1 °F 81% 30.11 in 10.0 mi West 11.5 mph - N/A   Clear
10:53 PM 55.0 °F 51.1 °F 86% 30.09 in 10.0 mi NW 6.9 mph - N/A   Clear
11:53 PM 55.0 °F 50.0 °F 83% 30.10 in 10.0 mi WNW 10.4 mph - N/A   Clear